| time (UTC) | temp F | wind direction | speed knots | gust knots | rain 1hr in | rain 24hr in | rain mn in | humidity % | barometer mb |
| 20260502090619 | 52 | 360 | 1.7 | 7.0 | 0.00 | 0.00 | 0.00 | 40 | 1019.2 |
| 20260502070627 | 55 | 360 | 5.2 | 9.6 | 0.00 | 0.00 | 0.00 | 36 | 1018.9 |
| 20260502065648 | 55 | 360 | 5.2 | 10.4 | 0.00 | 0.00 | 0.00 | 36 | 1018.9 |
| 20260502064619 | 56 | 360 | 2.6 | 7.0 | 0.00 | 0.00 | 0.00 | 35 | 1019.1 |
| 20260502063626 | 56 | 360 | 1.7 | 7.8 | 0.00 | 0.00 | 0.00 | 34 | 1018.9 |
| 20260502062614 | 57 | 360 | 4.3 | 11.3 | 0.00 | 0.00 | 0.00 | 33 | 1018.8 |
| 20260502061623 | 57 | 360 | 4.3 | 9.6 | 0.00 | 0.00 | 0.00 | 33 | 1018.7 |
| 20260502060622 | 57 | 360 | 4.3 | 7.8 | 0.00 | 0.00 | 0.00 | 33 | 1018.8 |
| 20260502055627 | 57 | 360 | 4.3 | 7.0 | 0.00 | 0.00 | 0.00 | 34 | 1018.7 |
| 20260502054616 | 57 | 360 | 2.6 | 7.8 | 0.00 | 0.00 | 0.00 | 35 | 1018.8 |
| 20260502053626 | 57 | 360 | 3.5 | 8.7 | 0.00 | 0.00 | 0.00 | 35 | 1018.7 |
| 20260502052620 | 56 | 360 | 2.6 | 5.2 | 0.00 | 0.00 | 0.00 | 36 | 1018.7 |
| 20260502051630 | 56 | 360 | 0.9 | 3.5 | 0.00 | 0.00 | 0.00 | 38 | 1018.6 |
| 20260502050620 | 56 | 360 | 0.0 | 1.7 | 0.00 | 0.00 | 0.00 | 38 | 1018.6 |
| 20260502045622 | 56 | 360 | 0.9 | 3.5 | 0.00 | 0.00 | 0.00 | 38 | 1018.6 |
| 20260502044615 | 57 | 360 | 0.9 | 3.5 | 0.00 | 0.00 | 0.00 | 39 | 1018.6 |
| 20260502043624 | 57 | 360 | 0.9 | 2.6 | 0.00 | 0.00 | 0.00 | 38 | 1018.6 |
| 20260502042613 | 57 | 360 | 0.9 | 3.5 | 0.00 | 0.00 | 0.00 | 37 | 1018.4 |
| 20260502041645 | 58 | 360 | 0.9 | 2.6 | 0.00 | 0.00 | 0.00 | 38 | 1018.4 |
| 20260502040619 | 58 | 360 | 0.9 | 1.7 | 0.00 | 0.00 | 0.00 | 39 | 1018.3 |
| 20260502035622 | 59 | 360 | 0.9 | 2.6 | 0.00 | 0.00 | 0.00 | 37 | 1018.3 |
| 20260502034612 | 60 | 360 | 1.7 | 3.5 | 0.00 | 0.00 | 0.00 | 37 | 1018.2 |
| 20260502033623 | 61 | 360 | 0.9 | 2.6 | 0.00 | 0.00 | 0.00 | 37 | 1018.1 |
| 20260502032617 | 61 | 360 | 0.9 | 3.5 | 0.00 | 0.00 | 0.00 | 37 | 1018.0 |
| 20260502031624 | 62 | 360 | 0.0 | 3.5 | 0.00 | 0.00 | 0.00 | 35 | 1017.8 |
| 20260502030612 | 63 | 360 | 0.9 | 3.5 | 0.00 | 0.00 | 0.00 | 33 | 1017.6 |
| 20260502025612 | 64 | 360 | 0.0 | 0.9 | 0.00 | 0.00 | 0.00 | 28 | 1017.4 |
| 20260502024625 | 65 | 360 | 0.0 | 0.9 | 0.00 | 0.00 | 0.00 | 26 | 1017.3 |
| 20260502023630 | 65 | 360 | 0.9 | 2.6 | 0.00 | 0.00 | 0.00 | 26 | 1017.3 |
| 20260502022638 | 66 | 360 | 0.9 | 2.6 | 0.00 | 0.00 | 0.00 | 25 | 1017.2 |
| 20260502021625 | 66 | 267 | 0.9 | 3.5 | 0.00 | 0.00 | 0.00 | 24 | 1017.2 |
| 20260502020618 | 67 | 266 | 0.9 | 3.5 | 0.00 | 0.00 | 0.00 | 24 | 1017.1 |
| 20260502015618 | 67 | 272 | 1.7 | 4.3 | 0.00 | 0.00 | 0.00 | 23 | 1017.1 |
| 20260502014626 | 67 | 271 | 2.6 | 6.1 | 0.00 | 0.00 | 0.00 | 23 | 1017.0 |
| 20260502013615 | 68 | 277 | 3.5 | 7.0 | 0.00 | 0.00 | 0.00 | 23 | 1017.0 |
| 20260502012626 | 68 | 288 | 2.6 | 7.0 | 0.00 | 0.00 | 0.00 | 23 | 1016.9 |
| 20260502011614 | 68 | 261 | 4.3 | 6.1 | 0.00 | 0.00 | 0.00 | 22 | 1016.9 |
| 20260502010622 | 68 | 296 | 0.9 | 7.8 | 0.00 | 0.00 | 0.00 | 22 | 1016.9 |
| 20260502005624 | 68 | 269 | 6.1 | 8.7 | 0.00 | 0.00 | 0.00 | 22 | 1017.0 |
| 20260502004616 | 68 | 298 | 2.6 | 8.7 | 0.00 | 0.00 | 0.00 | 22 | 1017.0 |
| 20260502003621 | 68 | 296 | 2.6 | 9.6 | 0.00 | 0.00 | 0.00 | 22 | 1017.0 |
| 20260502002631 | 68 | 261 | 7.0 | 9.6 | 0.00 | 0.00 | 0.00 | 22 | 1017.0 |
| 20260502001621 | 69 | 271 | 2.6 | 8.7 | 0.00 | 0.00 | 0.00 | 22 | 1017.0 |
| 20260502000616 | 68 | 291 | 4.3 | 11.3 | 0.00 | 0.00 | 0.00 | 22 | 1017.0 |
| 20260501235616 | 69 | 291 | 7.8 | 12.2 | 0.00 | 0.00 | 0.00 | 22 | 1017.0 |
| 20260501234626 | 68 | 323 | 3.5 | 11.3 | 0.00 | 0.00 | 0.00 | 22 | 1017.0 |
| 20260501233617 | 68 | 259 | 5.2 | 13.0 | 0.00 | 0.00 | 0.00 | 22 | 1017.0 |
| 20260501232631 | 68 | 269 | 6.1 | 12.2 | 0.00 | 0.00 | 0.00 | 23 | 1017.1 |
| 20260501231618 | 68 | 263 | 7.8 | 11.3 | 0.00 | 0.00 | 0.00 | 22 | 1017.2 |
| 20260501230629 | 68 | 301 | 2.6 | 11.3 | 0.00 | 0.00 | 0.00 | 23 | 1017.3 |
| 20260501225651 | 67 | 271 | 6.1 | 11.3 | 0.00 | 0.00 | 0.00 | 24 | 1017.4 |
| 20260501224622 | 68 | 313 | 7.8 | 13.0 | 0.00 | 0.00 | 0.00 | 23 | 1017.5 |
| 20260501223648 | 69 | 290 | 5.2 | 11.3 | 0.00 | 0.00 | 0.00 | 22 | 1017.5 |
| 20260501222614 | 69 | 320 | 3.5 | 8.7 | 0.00 | 0.00 | 0.00 | 22 | 1017.7 |
| 20260501221643 | 68 | 317 | 1.7 | 8.7 | 0.00 | 0.00 | 0.00 | 23 | 1017.9 |
| 20260501220616 | 68 | 28 | 2.6 | 9.6 | 0.00 | 0.00 | 0.00 | 22 | 1018.0 |
| 20260501215616 | 68 | 306 | 3.5 | 10.4 | 0.00 | 0.00 | 0.00 | 22 | 1018.1 |
| 20260501214624 | 68 | 323 | 2.6 | 12.2 | 0.00 | 0.00 | 0.00 | 22 | 1018.1 |
| 20260501213614 | 67 | 25 | 2.6 | 9.6 | 0.00 | 0.00 | 0.00 | 23 | 1018.2 |
| 20260501212626 | 67 | 273 | 4.3 | 10.4 | 0.00 | 0.00 | 0.00 | 22 | 1018.4 |
| 20260501211616 | 67 | 335 | 3.5 | 11.3 | 0.00 | 0.00 | 0.00 | 23 | 1018.3 |
| 20260501210626 | 67 | 292 | 2.6 | 12.2 | 0.00 | 0.00 | 0.00 | 22 | 1018.5 |
| 20260501205625 | 67 | 310 | 6.1 | 11.3 | 0.00 | 0.00 | 0.00 | 21 | 1018.5 |
| 20260501204618 | 67 | 55 | 6.1 | 11.3 | 0.00 | 0.00 | 0.00 | 22 | 1018.4 |
| 20260501203629 | 66 | 332 | 3.5 | 11.3 | 0.00 | 0.00 | 0.00 | 22 | 1018.5 |
| 20260501202619 | 66 | 304 | 5.2 | 10.4 | 0.00 | 0.00 | 0.00 | 22 | 1018.4 |
| 20260501201648 | 66 | 282 | 5.2 | 11.3 | 0.00 | 0.00 | 0.00 | 22 | 1018.5 |
| 20260501200621 | 66 | 298 | 7.8 | 13.0 | 0.00 | 0.00 | 0.00 | 22 | 1018.5 |
| 20260501195620 | 66 | 300 | 4.3 | 10.4 | 0.00 | 0.00 | 0.00 | 22 | 1018.5 |
| 20260501194628 | 65 | 313 | 6.1 | 10.4 | 0.00 | 0.00 | 0.00 | 22 | 1018.6 |
| 20260501193616 | 66 | 327 | 1.7 | 7.0 | 0.00 | 0.00 | 0.00 | 21 | 1018.7 |
| 20260501192644 | 66 | 271 | 1.7 | 6.1 | 0.00 | 0.00 | 0.00 | 20 | 1018.8 |
| 20260501191619 | 66 | 96 | 6.1 | 10.4 | 0.00 | 0.00 | 0.00 | 14 | 1018.9 |
| 20260501190629 | 65 | 44 | 3.5 | 8.7 | 0.00 | 0.00 | 0.00 | 17 | 1018.9 |
| 20260501185630 | 64 | 88 | 3.5 | 9.6 | 0.00 | 0.00 | 0.00 | 19 | 1019.1 |
| 20260501184617 | 63 | 268 | 2.6 | 6.1 | 0.00 | 0.00 | 0.00 | 21 | 1019.2 |
| 20260501183612 | 63 | 281 | 2.6 | 6.1 | 0.00 | 0.00 | 0.00 | 21 | 1019.3 |
| 20260501182622 | 63 | 47 | 0.9 | 7.8 | 0.00 | 0.00 | 0.00 | 21 | 1019.5 |
| 20260501181652 | 63 | 86 | 2.6 | 9.6 | 0.00 | 0.00 | 0.00 | 21 | 1019.5 |
| 20260501180627 | 63 | 93 | 7.8 | 11.3 | 0.00 | 0.00 | 0.00 | 21 | 1019.6 |
| 20260501175612 | 62 | 76 | 7.8 | 13.0 | 0.00 | 0.00 | 0.00 | 22 | 1019.7 |
| 20260501174623 | 62 | 70 | 7.8 | 13.0 | 0.00 | 0.00 | 0.00 | 20 | 1019.7 |
| 20260501173613 | 62 | 27 | 7.8 | 13.9 | 0.00 | 0.00 | 0.00 | 21 | 1019.8 |
| 20260501172623 | 62 | 91 | 6.1 | 13.9 | 0.00 | 0.00 | 0.00 | 21 | 1019.8 |
| 20260501171617 | 61 | 49 | 6.1 | 9.6 | 0.00 | 0.00 | 0.00 | 23 | 1019.8 |
| 20260501170626 | 61 | 70 | 6.1 | 11.3 | 0.00 | 0.00 | 0.00 | 23 | 1020.0 |
| 20260501165625 | 60 | 64 | 4.3 | 14.8 | 0.00 | 0.00 | 0.00 | 25 | 1019.9 |
| 20260501164615 | 60 | 68 | 7.0 | 15.6 | 0.00 | 0.00 | 0.00 | 26 | 1020.1 |
| 20260501163627 | 59 | 66 | 7.8 | 15.6 | 0.00 | 0.00 | 0.00 | 25 | 1020.0 |
| 20260501162615 | 59 | 59 | 7.8 | 15.6 | 0.00 | 0.00 | 0.00 | 25 | 1020.1 |